Retour au catalogue

COSMOS 1375 DEB

ActifLEO
NORAD 16384·DEBRIS·🇷🇺 Russia

Lancé Jun 6, 1982 depuis Plesetsk Cosmodrome

Loading…

Prochains Passages (prochaines 24 heures)

TLE

FraisSource: Space-Track

Époque: Sep 14, 2026, 08:11 UTC

1 16384U 82055Y   26257.34111749  .00000050  00000-0  14569-3 0  9997
2 16384  65.8308 236.9921 0039203 357.6987 150.8171 13.70370320 43059

Suivez COSMOS 1375 DEB en temps réel avec AllMySat

Download on the App Store